Regional Weather Roundup
Issued by NWS

Home | Current Version | Previous Version | Graphics & Text | Print | Product List | Glossary On
Versions: 1 2 3 4 5 6 7 8 9 10 11 12 13 14 15 16 17 18 19 20 21 22 23 24 25 26 27 28 29 30 31 32 33 34 35 36 37 38 39 40 41 42 43 44 45 46 47 48 49 50
298
ASUS45 KTFX 020510
RWRMT
MONTANA REGIONAL WEATHER ROUNDUP
NATIONAL WEATHER SERVICE GREAT FALLS MT
1100 PM MDT SUN MAY 01 2016

NOTE: "FAIR" INDICATES FEW OR NO CLOUDS BELOW 12000 FEET WITH NO
SIGNIFICANT WEATHER AND/OR OBSTRUCTIONS TO VISIBILITY.

MTZ001>007-043-020600-
WEST OF THE DIVIDE

CITY           SKY/WX    TMP DP  RH WIND       PRES   REMARKS
KALISPELL      CLEAR     45  40  82 CALM      30.12R
MISSOULA       CLEAR     52  39  61 CALM      30.15R
BUTTE          CLEAR     42  27  55 E3        30.22R
MULLAN PASS    CLEAR     47  29  49 SE8       30.20R
ANACONDA         N/A     43  30  61 S3        30.21R
DEER LODGE       N/A     46  34  61 W8        30.21R
EUREKA           N/A     48  37  66 CALM      30.13R
HAMILTON         N/A     46  37  71 CALM      30.14R
LIBBY            N/A     52  37  58 CALM      30.13R
PLAINS           N/A     48  37  65 CALM      30.13R
$$

MTZ008-052>055-020600-
SOUTHWEST MONTANA

CITY           SKY/WX    TMP DP  RH WIND       PRES   REMARKS
BOZEMAN        CLEAR     48  29  47 SE9       30.20R
DILLON         CLEAR     47  28  47 E5        30.18R
ENNIS          CLEAR     46  30  53 S3        30.25R
TWIN BRIDGES     N/A     51  23  33 N9        30.15R
$$

MTZ009-010-012-014-046-048-049-054-020600-
EAST SLOPES AND CENTRAL MONTANA

CITY           SKY/WX    TMP DP  RH WIND       PRES   REMARKS
CUT BANK       CLEAR     50  32  50 SE5       30.19S
GREAT FALLS    CLEAR     50  32  50 NE3       30.19R
HELENA         CLEAR     52  35  52 W9        30.18R
CHOTEAU          N/A     48  34  57 W5        30.20S
CONRAD           N/A     39  35  85 E5        30.20S
$$

MTZ011-013-016-021-045-047-050-051-020600-
NORTH CENTRAL MONTANA

CITY           SKY/WX    TMP DP  RH WIND       PRES   REMARKS
HAVRE          CLOUDY    42  36  79 S7        30.17S
LEWISTOWN      CLOUDY    42  32  67 SE8       30.21S
N BAR RANCH      N/A     37  30  75 W6        30.25R
CHINOOK          N/A     46  39  76 CALM      30.18S
$$

MTZ017>020-022>027-061-062-020600-
NORTHEAST MONTANA

CITY           SKY/WX    TMP DP  RH WIND       PRES   REMARKS
GLASGOW        PTCLDY    53  33  46 W6        30.16S
JORDAN           N/A     43  38  82 S5        30.19R
SIDNEY         CLEAR     48  32  53 W10       30.15S
WOLF POINT     CLEAR     48  36  63 SW5       30.16S
PLENTYWOOD       N/A     52  34  50 CALM      30.11S
POPLAR           N/A     48  36  61 SW5       30.15S
SCOBEY           N/A     51  30  44 W14       30.11F
$$

MTZ028>42-056>058-020600-
SOUTHCENTRAL AND SOUTHEAST MONTANA

CITY           SKY/WX    TMP DP  RH WIND       PRES   REMARKS
BAKER          CLOUDY    46  32  58 NW5       30.20S
BILLINGS       CLOUDY    52  30  43 S5        30.22S
LIVINGSTON     CLEAR     43  29  57 E8        30.22R
MILES CITY     CLOUDY    49  35  58 SW8       30.20R
EKALAKA          N/A     42  28  58 SE3       30.17F
FORSYTH          N/A     46  34  61 CALM      30.20S
LAUREL           N/A     43  27  53 CALM      30.18F
ROUNDUP          N/A     49  31  50 E3        30.11S
$$

REGIONAL REPORTS...DAKOTAS

CITY           SKY/WX    TMP DP  RH WIND       PRES   REMARKS
WILLISTON      PTCLDY    47  34  60 SW7       30.11F
MINOT          CLOUDY    58  27  30 S8        30.08F
DICKINSON      CLEAR     43  28  55 W3        30.15S
BEACH            N/A     41  32  70 SW6       30.21S
CROSBY         MOCLDY    54  32  43 W9        30.09F
WATFORD CITY     N/A     45  32  61 SW3       30.13F
BISMARCK       CLEAR     45  33  63 CALM      30.16R
GRAND FORKS    MOCLDY    44  32  62 S3        30.11F
FARGO          CLEAR     45  26  47 E5        30.12F
BUFFALO SD       N/A     44  31  60 W6        30.13F
RAPID CITY     CLEAR     39  30  70 W5        30.24S
$$

REGIONAL REPORTS...WYOMING/IDAHO/WASHINGTON

CITY           SKY/WX    TMP DP  RH WIND       PRES   REMARKS
GILLETTE       CLEAR     32  29  88 S5        30.24F
SHERIDAN       CLEAR     36  31  82 S6        30.23S WCI  31
BUFFALO WY       N/A    N/A N/A N/A MISG      30.26S
CODY           CLEAR     43  27  52 W5        30.25R
YELLOWSTONE LA   N/A     27  19  72 W3        30.29R
IDAHO FALLS    CLEAR     48  24  39 SW8       30.14R
SALMON         CLEAR     45  30  57 CALM      30.13R
BOISE          CLEAR     55  36  48 E5        30.08R
SPOKANE        CLEAR     63  37  38 CALM      30.06S
$$

REGIONAL REPORTS...ALBERTA

CITY           SKY/WX    TMP DP  RH WIND       PRES   REMARKS
EDMONTON       PTCLDY    57  37  47 W6        30.06S
CALGARY        PTCLDY    57  27  30 W3        30.16R
LETHBRIDGE     CLEAR     48  36  61 S18       30.15R
MEDICINE HAT   CLEAR     46  39  76 SW7       30.14R
$$

REGIONAL REPORTS...SASKATCHEWAN

CITY           SKY/WX    TMP DP  RH WIND       PRES   REMARKS
SWIFT CURRENT  MOCLDY    50  36  57 W8        30.11S
REGINA         MOCLDY    48  34  57 W10       30.05F
SASKATOON      PTCLDY    52  32  46 SW7       30.04S
$$




USA.gov is the U.S. government's official web portal to all federal, state and local government web resources and services.